Location: Jewell
(31.5029°N, 97.1961°W)
Time: 23:34:55
(UTC+00:00)

ARIANE 6 FM1 Upper Stage - Pass Details

Date: 18 December 2025
Orbit: 522 x 610 km, 62.0° (Epoch: 15 January)

Event Time Altitude Azimuth Distance (km) Brightness Sun altitude
Exits shadow 11:23:53 21° 23° (NNE) 1,240 4.5 -24.5°
Drops below altitude 10° 11:25:16 10° 26° (NNE) 1,779 5.3 -24.3°
Sets 11:27:27 0° 29° (NNE) 2,663 6.3 -23.8°
